Colorado City, AZ

5:28 AM MST on November 23, 2017 (GMT -0700)
Colorado City Municipal

Weather History for KAZC - May, 2014

Change the Weather History Date:

Friday, May 16, 2014

  Actual Average (KSGU) Record (KSGU)
Temperature  
Mean Temperature 67 °F -  
Max Temperature 87 °F 88 °F 98 °F (1970)
Min Temperature 47 °F 55 °F 39 °F (1955)
Cooling Degree Days 2    
Growing Degree Days 17 (Base 50)    
Moisture  
Dew Point 21 °F    
Average Humidity 21    
Maximum Humidity 41    
Minimum Humidity 8    
Precipitation  
Precipitation 0.00 in - - ()
Sea Level Pressure  
Sea Level Pressure 30.14 in    
Wind  
Wind Speed 5 mph (SW)    
Max Wind Speed 16 mph    
Max Gust Speed 23 mph    
Visibility 10 miles    
Events      
Averages and records for this station are not official NWS values.
T = Trace of Precipitation, MM = Missing Value Source: NWS Daily Summary

Daily Weather History Graph

Daily Weather History Graph

Search for Another Location

Airport or City:

Trip Planner

Search our weather history database for the weather conditions in past years. The results will help you decide how hot, cold, wet, or windy it might be!

Date:

Astronomy

May. 16, 2014 Rise Set
Actual Time 5:23 AM MST 7:34 PM MST
Civil Twilight 4:54 AM MST 8:03 PM MST
Nautical Twilight 4:18 AM MST 8:38 PM MST
Astronomical Twilight 3:40 AM MST 9:17 PM MST
Moon 9:44 PM MST (5/16) 7:08 AM MST (5/16)
Length of Visible Light 15h 09m
Length of Day
14h 10m
Waning Gibbous, 95% of the Moon is Illuminated
May 16
Waning Gibbous
May 21
Last Quarter
May 28
New
Jun 5
First Quarter
Jun 12
Full

Hourly Weather History & Observations

Time (MST) Temp. Dew Point Humidity Pressure Visibility Wind Dir Wind Speed Gust Speed Precip Events Conditions
12:15 AM 51.3 °F 22.8 °F 33% 30.23 in 10.0 mi South 4.6 mph - N/A   Clear
12:35 AM 50.7 °F 22.8 °F 34% 30.22 in 10.0 mi SE 3.5 mph - N/A   Clear
12:55 AM 50.4 °F 23.5 °F 35% 30.22 in 10.0 mi SSE 4.6 mph - N/A   Clear
1:15 AM 49.8 °F 23.7 °F 36% 30.21 in 10.0 mi SSE 4.6 mph - N/A   Clear
1:35 AM 50.2 °F 23.9 °F 36% 30.21 in 10.0 mi SSE 3.5 mph - N/A   Clear
1:55 AM 50.9 °F 23.2 °F 34% 30.21 in 10.0 mi SE 3.5 mph - N/A   Clear
2:15 AM 49.5 °F 24.1 °F 37% 30.21 in 10.0 mi SE 6.9 mph - N/A   Clear
2:35 AM 51.3 °F 23.0 °F 33% 30.21 in 10.0 mi SE 5.8 mph - N/A   Clear
2:55 AM 48.9 °F 23.2 °F 36% 30.21 in 10.0 mi ESE 4.6 mph - N/A   Clear
3:15 AM 48.7 °F 23.5 °F 37% 30.21 in 10.0 mi SE 3.5 mph - N/A   Clear
3:35 AM 50.0 °F 22.8 °F 34% 30.21 in 10.0 mi SE 3.5 mph - N/A   Clear
3:55 AM 49.5 °F 22.8 °F 35% 30.21 in 10.0 mi SSE 4.6 mph - N/A   Clear
4:15 AM 48.2 °F 23.7 °F 38% 30.20 in 10.0 mi SSE 3.5 mph - N/A   Clear
4:35 AM 47.1 °F 23.9 °F 40% 30.20 in 10.0 mi SSE 4.6 mph - N/A   Clear
4:55 AM 47.1 °F 23.9 °F 40% 30.20 in 10.0 mi SE 5.8 mph - N/A   Clear
5:15 AM 47.3 °F 24.6 °F 41% 30.21 in 10.0 mi SE 8.1 mph - N/A   Clear
5:35 AM 48.0 °F 25.3 °F 41% 30.21 in 10.0 mi ESE 4.6 mph - N/A   Clear
5:55 AM 48.4 °F 25.7 °F 41% 30.21 in 10.0 mi ESE 4.6 mph - N/A   Clear
6:15 AM 49.1 °F 26.1 °F 41% 30.22 in 10.0 mi SSE 4.6 mph - N/A   Clear
6:35 AM 50.9 °F 26.8 °F 39% 30.21 in 10.0 mi Calm Calm - N/A   Clear
6:55 AM 52.5 °F 27.5 °F 38% 30.22 in 10.0 mi Calm Calm - N/A   Clear
7:15 AM 55.2 °F 27.3 °F 34% 30.21 in 10.0 mi Calm Calm - N/A   Clear
7:35 AM 59.2 °F 27.7 °F 30% 30.21 in 10.0 mi Calm Calm - N/A   Clear
7:55 AM 62.4 °F 28.6 °F 28% 30.21 in 10.0 mi Calm Calm - N/A   Clear
8:15 AM 65.8 °F 28.8 °F 25% 30.22 in 10.0 mi Calm Calm - N/A   Clear
8:35 AM 71.1 °F 24.6 °F 18% 30.21 in 10.0 mi SSE 3.5 mph - N/A   Clear
8:55 AM 73.9 °F 21.4 °F 14% 30.21 in 10.0 mi Calm Calm - N/A   Clear
9:15 AM 75.4 °F 21.0 °F 13% 30.20 in 10.0 mi Calm Calm - N/A   Clear
9:35 AM 77.2 °F 21.4 °F 12% 30.20 in 10.0 mi Calm Calm - N/A   Clear
9:55 AM 79.5 °F 21.0 °F 11% 30.19 in 10.0 mi NW 4.6 mph - N/A   Clear
10:15 AM 81.1 °F 20.3 °F 10% 30.18 in 10.0 mi Calm Calm - N/A   Clear
10:35 AM 83.5 °F 19.6 °F 9% 30.18 in 10.0 mi WSW 8.1 mph 19.6 mph N/A   Clear
10:55 AM 84.7 °F 18.7 °F 9% 30.18 in 10.0 mi WNW 13.8 mph 19.6 mph N/A   Clear
11:15 AM 84.7 °F 18.9 °F 9% 30.17 in 10.0 mi WNW 12.7 mph 18.4 mph N/A   Clear
11:35 AM 86.2 °F 18.5 °F 8% 30.17 in 10.0 mi West 9.2 mph 19.6 mph N/A   Clear
11:55 AM 84.9 °F 18.0 °F 8% 30.16 in 10.0 mi NW 13.8 mph 20.7 mph N/A   Clear
12:15 PM 84.6 °F 18.5 °F 9% 30.16 in 10.0 mi WNW 15.0 mph 19.6 mph N/A   Clear
12:35 PM 84.7 °F 18.3 °F 9% 30.15 in 10.0 mi West 12.7 mph 20.7 mph N/A   Clear
1:15 PM 85.5 °F 18.0 °F 8% 30.14 in 10.0 mi WNW 16.1 mph 19.6 mph N/A   Clear
1:35 PM 86.7 °F 18.3 °F 8% 30.13 in 10.0 mi WNW 16.1 mph 20.7 mph N/A   Clear
1:55 PM 87.4 °F 18.5 °F 8% 30.13 in 10.0 mi West 12.7 mph 21.9 mph N/A   Clear
2:15 PM 87.1 °F 18.0 °F 8% 30.13 in 10.0 mi WNW 16.1 mph 23.0 mph N/A   Clear
2:35 PM 86.5 °F 18.1 °F 8% 30.12 in 10.0 mi NW 9.2 mph - N/A   Clear
2:55 PM 86.9 °F 19.0 °F 8% 30.11 in 10.0 mi WNW 12.7 mph 21.9 mph N/A   Scattered Clouds
3:15 PM 87.8 °F 18.9 °F 8% 30.10 in 10.0 mi West 13.8 mph 20.7 mph N/A   Clear
3:35 PM 86.4 °F 18.5 °F 8% 30.09 in 10.0 mi WNW 11.5 mph 23.0 mph N/A   Clear
3:55 PM 85.3 °F 18.0 °F 8% 30.09 in 10.0 mi WNW 12.7 mph 21.9 mph N/A   Clear
4:15 PM 85.6 °F 17.4 °F 8% 30.08 in 10.0 mi West 12.7 mph 16.1 mph N/A   Clear
4:35 PM 85.8 °F 17.4 °F 8% 30.07 in 10.0 mi NW 9.2 mph 15.0 mph N/A   Clear
4:55 PM 85.1 °F 17.4 °F 8% 30.07 in 10.0 mi WNW 13.8 mph - N/A   Clear
5:15 PM 84.6 °F 17.6 °F 8% 30.06 in 10.0 mi WNW 9.2 mph - N/A   Clear
5:35 PM 83.8 °F 17.4 °F 8% 30.06 in 10.0 mi WNW 10.4 mph - N/A   Clear
5:55 PM 83.3 °F 17.4 °F 9% 30.05 in 10.0 mi WNW 8.1 mph - N/A   Clear
6:15 PM 82.8 °F 16.9 °F 9% 30.05 in 10.0 mi WNW 9.2 mph - N/A   Clear
6:35 PM 81.7 °F 16.5 °F 9% 30.05 in 10.0 mi West 8.1 mph - N/A   Clear
6:55 PM 80.4 °F 16.2 °F 9% 30.05 in 10.0 mi WNW 6.9 mph - N/A   Clear
7:15 PM 78.4 °F 16.7 °F 10% 30.05 in 10.0 mi WSW 4.6 mph - N/A   Clear
7:35 PM 74.8 °F 16.9 °F 11% 30.05 in 10.0 mi WSW 5.8 mph - N/A   Clear
7:55 PM 73.0 °F 16.2 °F 12% 30.05 in 10.0 mi WSW 5.8 mph - N/A   Clear
8:15 PM 71.8 °F 15.8 °F 12% 30.05 in 10.0 mi Calm Calm - N/A   Clear
8:35 PM 68.2 °F 18.1 °F 15% 30.05 in 10.0 mi NE 5.8 mph - N/A   Clear
8:55 PM 63.5 °F 20.8 °F 20% 30.06 in 10.0 mi Calm Calm - N/A   Clear
9:15 PM 62.8 °F 20.1 °F 19% 30.06 in 10.0 mi ENE 3.5 mph - N/A   Clear
9:35 PM 58.1 °F 21.4 °F 24% 30.07 in 10.0 mi SE 3.5 mph - N/A   Clear
9:55 PM 54.5 °F 20.1 °F 26% 30.07 in 10.0 mi SE 3.5 mph - N/A   Clear
10:15 PM 52.0 °F 20.1 °F 29% 30.06 in 10.0 mi Calm Calm - N/A   Clear
10:35 PM 52.0 °F 19.8 °F 28% 30.06 in 10.0 mi Calm Calm - N/A   Clear
10:55 PM 52.7 °F 19.2 °F 27% 30.06 in 10.0 mi South 3.5 mph - N/A   Clear
11:15 PM 52.7 °F 18.9 °F 26% 30.06 in 10.0 mi SE 3.5 mph - N/A   Clear
11:35 PM 50.2 °F 19.8 °F 30% 30.06 in 10.0 mi Calm Calm - N/A   Clear
11:55 PM 49.1 °F 20.1 °F 32% 30.06 in 10.0 mi SE 5.8 mph - N/A   Clear